#timestamp,LO_Frequency,Hit,StdDev 
1543903215.6,286047022.9,N
1543903235.4,286047024.6,N
1543903255.2,286047028.0,N
1543903275.1,286047025.3,N
1543903276.0,286047025.3,N
1543903295.8,286047029.5,N
1543903315.7,286047032.8,N
1543903335.5,286047034.0,N
1543903355.3,286047030.4,N
1543903375.2,286047031.3,N
1543903395.0,286047033.1,N
1543903395.9,286047033.1,N
1543903415.7,286047033.8,N
1543903435.6,286047035.9,N
1543903455.4,286047032.1,N
1543903475.3,286047030.6,N
1543903495.1,286047030.0,N
1543903496.0,286047030.0,N
1543903515.8,286047024.9,N
1543903535.7,286047019.3,N
1543903555.5,286047017.1,N
1543903575.3,286047013.3,N
1543903595.2,286047007.7,N
1543903615.0,286047004.5,N
1543903615.9,286047004.5,N
1543903635.8,286047003.8,N
1543903655.6,286047002.8,N
1543903675.4,286046999.6,N
1543903695.3,286046997.8,N
1543903715.1,286046995.4,N
1543903735.8,286046994.2,N
1543903755.7,286046993.1,N
1543903775.5,286046988.7,N
1543903795.4,286046989.3,N
1543903815.2,286046987.6,N
1543903835.0,286046985.7,N
1543903835.9,286046985.7,N
1543903855.8,286046984.1,N
1543903875.6,286046985.2,N
1543903895.4,286046983.0,N
1543903915.3,286046980.6,N
1543903935.1,286046980.5,N
1543903955.9,286046981.9,N
1543903975.7,286046980.4,N
1543903995.5,286046980.4,N
1543904015.4,286046980.3,N
1543904035.2,286046976.1,N
1543904055.0,286046976.6,N
1543904055.9,286046976.6,N
1543904075.8,286046974.6,N
1543904095.6,286046974.7,N
1543904115.5,286046974.6,N
1543904135.3,286046972.6,N
1543904155.1,286046973.8,N
1543904175.9,286046973.9,N
1543904195.7,286046973.6,N
1543904215.6,286046973.9,Y
1543904235.4,286046991.9,P
1543904255.2,286046997.8,N
1543904275.1,286047001.0,N
1543904276.0,286047001.0,N
1543904295.8,286047002.8,N
1543904315.6,286046998.4,N
1543904335.5,286047002.0,N
1543904355.3,286047006.1,N
1543904375.2,286047017.1,N
1543904395.9,286047019.6,N
1543904415.7,286047023.6,N
1543904435.6,286047025.8,N
1543904455.4,286047032.0,N
1543904475.2,286047037.1,N
1543904495.1,286047041.0,N
1543904496.0,286047041.0,N
1543904515.8,286047043.2,N
1543904535.7,286047043.8,N
1543904555.5,286047047.2,N
1543904575.3,286047043.0,N
1543904595.2,286047044.2,N
1543904615.9,286047043.7,N
1543904635.7,286047044.8,N
1543904655.6,286047043.8,N
1543904675.4,286047041.6,N
1543904695.3,286047039.6,N
1543904715.1,286047033.6,N
1543904716.0,286047033.6,N
1543904735.8,286047030.0,N
1543904755.7,286047023.3,N
1543904775.5,286047019.9,N
1543904795.3,286047016.1,N
1543904815.2,286047013.2,N
1543904835.0,286047009.8,N
1543904835.9,286047009.8,N
1543904855.8,286047008.1,N
1543904875.6,286047007.4,N
1543904895.4,286047004.5,N
1543904915.3,286047005.9,N
1543904935.1,286047004.3,N
1543904955.8,286047002.8,N
1543904975.7,286046998.3,N
1543904995.5,286046998.7,N
1543905015.4,286046997.0,N
1543905035.2,286046995.0,N
1543905055.0,286046997.8,N
1543905055.9,286046997.8,N
1543905075.8,286046997.5,N
1543905095.6,286046993.4,N
1543905115.4,286046994.1,N
1543905135.3,286046994.3,N
1543905155.1,286046992.0,N
1543905175.9,286046991.3,N
1543905195.7,286046990.8,N
1543905215.5,286046991.6,N
1543905235.4,286046987.3,N
1543905255.2,286046988.1,N
1543905275.0,286046987.4,N
1543905275.9,286046987.4,N
1543905295.8,286046991.5,N
1543905315.6,286046989.4,N
1543905335.5,286046991.6,N
1543905355.3,286046990.6,N
1543905375.1,286046990.3,N
1543905395.9,286046990.4,N
1543905415.7,286046991.1,N
1543905435.5,286046988.5,N
1543905455.4,286046987.5,N
1543905475.2,286046987.7,N
1543905495.0,286046988.2,N
1543905496.0,286046988.2,N
1543905515.8,286046986.1,Y
1543905535.6,286046994.7,P
1543905555.5,286046993.7,P
1543905575.3,286046992.2,P
1543905595.1,286046992.0,Y
1543905615.9,286046998.2,P
1543905635.7,286047000.8,N
1543905655.6,286047000.9,N
1543905675.4,286047000.9,N
1543905695.2,286046999.3,N
1543905715.1,286046999.0,N
1543905716.0,286046999.0,N
1543905735.8,286046999.2,N
1543905755.6,286046999.1,N
1543905775.5,286046996.9,N
1543905795.3,286046997.0,N
1543905815.2,286046999.4,N
1543905835.9,286047001.1,N
1543905855.7,286047001.2,N
1543905875.6,286046999.0,N
1543905895.4,286046999.0,N
1543905915.2,286046998.8,N
1543905935.1,286047000.7,N
1543905936.0,286047000.7,N
1543905955.8,286046998.8,N
1543905975.7,286046999.1,N
1543905995.5,286046999.6,N
1543906015.3,286046998.8,N
1543906035.2,286046996.7,N
1543906055.9,286046996.9,N
1543906075.7,286046997.4,N
1543906095.6,286046997.9,N
1543906115.4,286046995.5,N
1543906135.3,286046996.0,N
1543906155.1,286046993.4,Y
1543906156.0,286046993.4,P
1543906175.8,286046998.4,N
1543906195.7,286046996.6,N
1543906215.5,286046997.2,N
1543906235.3,286046997.8,N
1543906255.2,286046997.2,N
1543906275.0,286046997.9,N
1543906275.9,286046997.9,N
1543906295.8,286046995.3,Y
1543906315.6,286046998.7,P
1543906335.4,286046998.4,N
1543906355.3,286046998.1,P
1543906375.1,286046999.0,N
1543906395.8,286046996.6,Y
1543906415.7,286046996.5,P
1543906435.5,286046999.0,N
1543906455.4,286046996.5,P
1543906475.2,286046998.3,N
1543906495.0,286046997.3,N
1543906495.9,286046997.3,N
1543906515.8,286046996.7,Y
1543906535.6,286047000.1,P
1543906555.5,286047002.3,N
1543906575.3,286047002.4,N
1543906595.1,286046999.8,N
1543906615.9,286046999.7,N
1543906635.7,286047000.9,N
1543906655.5,286047002.8,N
1543906675.4,286047001.2,N
1543906695.2,286047001.0,N
1543906715.1,286047000.6,N
1543906716.0,286047000.6,N
1543906735.8,286047001.0,N
1543906755.6,286047000.5,N
1543906775.5,286046998.9,N
1543906795.3,286046999.2,N
